EW9345 Weather Reports


Display with metric or nautical units.
time (UTC)temp
F
wind
direction
speed
MPH
gust
MPH
rain 1hr
in
rain 24hr
in
rain mn
in
humidity
%
barometer
mb
20260505124815 69 190 0.0 0.0 0.00 0.00 0.00 55 1008.9
20260505124301 68 158 0.0 0.0 0.00 0.00 0.00 56 1008.9
20260505124044 68 196 0.0 0.0 0.00 0.00 0.00 56 1008.9
20260505123244 67 135 0.0 0.0 0.00 0.00 0.00 57 1008.9
20260505122738 67 223 0.0 0.0 0.00 0.00 0.00 58 1008.9
20260505122228 67 156 0.0 0.0 0.00 0.00 0.00 60 1008.9
20260505122016 66 209 0.0 0.0 0.00 0.00 0.00 59 1008.9
20260505121216 66 175 0.0 0.0 0.00 0.00 0.00 60 1009.0
20260505120706 65 188 0.0 0.0 0.00 0.00 0.00 61 1009.1
20260505120200 65 138 0.0 0.0 0.00 0.00 0.00 63 1009.0
20260505115654 64 217 0.0 0.0 0.00 0.00 0.00 64 1009.0
20260505115144 64 263 0.0 0.0 0.00 0.00 0.00 64 1009.1
20260505114638 63 154 0.0 0.0 0.00 0.00 0.00 65 1009.1
20260505114132 63 229 0.0 0.0 0.00 0.00 0.00 66 1009.2
20260505113623 62 205 0.0 0.0 0.00 0.00 0.00 67 1009.1
20260505113116 62 162 0.0 0.0 0.00 0.00 0.00 69 1009.2
20260505112610 61 103 0.0 0.0 0.00 0.00 0.00 69 1009.0
20260505112106 60 106 0.0 0.0 0.00 0.00 0.00 70 1009.2
20260505111604 60 176 0.0 0.0 0.00 0.00 0.00 70 1009.4
20260505111401 60 196 0.0 0.0 0.00 0.00 0.00 70 1009.2
20260505110603 60 155 0.0 0.0 0.00 0.00 0.00 70 1009.1
20260505110104 60 118 0.0 0.0 0.00 0.00 0.00 70 1009.0
20260505102055 0 0.0 0.0 0.00 0.00 0.00 1009.0
20260505101507 0 0.0 0.0 0.00 0.00 0.00 1008.9
20260505101007 0 0.0 0.0 0.00 0.00 0.00 1008.9
20260505100505 0 0.0 0.0 0.00 0.00 0.00 1008.9
20260505100004 0 0.0 0.0 0.00 0.00 0.00 1008.8
20260505095722 0 0.0 0.0 0.00 0.00 0.00 1008.9
20260505094908 0 0.0 0.0 0.00 0.00 0.00 1008.3
20260505094359 0 0.0 0.0 0.00 0.00 0.00 1008.3
20260505093859 0 0.0 0.0 0.00 0.00 0.00 1008.2
20260505093357 0 0.0 0.0 0.00 0.00 0.00 1008.2
20260505092854 0 0.0 0.0 0.00 0.00 0.00 1008.2
20260505092306 0 0.0 0.0 0.00 0.00 0.00 1008.2
20260505091807 0 0.0 0.0 0.00 0.00 0.00 1008.2
20260505091304 0 0.0 0.0 0.00 0.00 0.00 1008.3
20260505090701 58 0.0 0.0 0.00 0.00 0.00 71 1008.3
20260505090201 58 139 0.0 0.0 0.00 0.00 0.00 71 1008.2
20260505090104 58 139 0.0 0.0 0.00 0.00 0.00 71 1008.2
20260505085020 57 181 0.0 0.0 0.00 0.00 0.00 71 1008.2
20260505084518 58 162 0.0 0.0 0.00 0.00 0.00 72 1008.3
20260505084015 58 207 0.0 0.0 0.00 0.00 0.00 72 1008.2
20260505083515 58 154 0.0 0.0 0.00 0.00 0.00 72 1008.3
20260505083016 58 148 0.0 0.0 0.00 0.00 0.00 71 1008.3
20260505082514 58 105 0.0 0.0 0.00 0.00 0.00 71 1008.3
20260505082015 58 162 0.0 0.0 0.00 0.00 0.00 71 1008.3
20260505081812 58 192 0.0 0.0 0.00 0.00 0.00 70 1008.2
20260505081012 58 236 0.0 0.0 0.00 0.00 0.00 70 1008.2
20260505080512 58 229 0.0 0.0 0.00 0.00 0.00 70 1008.2
20260505080012 58 221 0.0 0.0 0.00 0.00 0.00 70 1008.2
20260505075506 58 161 0.0 0.0 0.00 0.00 0.00 70 1008.3
20260505075305 58 116 0.0 0.0 0.00 0.00 0.00 70 1008.2
20260505074504 58 186 0.0 0.0 0.00 0.00 0.00 70 1008.3
20260505074001 58 165 0.0 0.0 0.00 0.00 0.00 70 1008.2
20260505073459 58 209 0.0 0.0 0.00 0.00 0.00 69 1008.3
20260505072958 58 123 0.0 0.0 0.00 0.00 0.00 69 1008.2
20260505072457 58 146 0.0 0.0 0.00 0.00 0.00 69 1008.3
20260505071957 58 118 0.0 0.0 0.00 0.00 0.00 68 1008.2
20260505071454 58 137 0.0 0.0 0.00 0.00 0.00 68 1008.2
20260505070954 59 137 0.0 0.0 0.00 0.00 0.00 68 1008.2
20260505070501 59 137 0.0 0.0 0.00 0.00 0.00 67 1008.2
20260505065954 59 122 0.0 0.0 0.00 0.00 0.00 67 1008.2
20260505065454 59 153 0.0 0.0 0.00 0.00 0.00 67 1008.2
20260505064955 59 244 0.0 0.0 0.00 0.00 0.00 66 1008.2
20260505064455 60 158 0.0 0.0 0.00 0.00 0.00 66 1008.2
20260505063955 60 231 0.0 0.0 0.00 0.00 0.00 65 1008.2
20260505063450 60 174 0.0 0.0 0.00 0.00 0.00 65 1008.2
20260505063246 60 131 0.0 0.0 0.00 0.00 0.00 65 1008.1
20260505062448 60 148 0.0 0.0 0.00 0.00 0.00 65 1008.2
20260505061947 60 153 0.0 0.0 0.00 0.00 0.00 65 1008.3
20260505061446 60 205 0.0 0.0 0.00 0.00 0.00 65 1008.4
20260505060946 60 150 0.0 0.0 0.00 0.00 0.00 64 1008.3
20260505060444 60 236 0.0 0.0 0.00 0.00 0.00 65 1008.4
20260505055948 60 200 0.0 0.0 0.00 0.00 0.00 64 1008.4
20260505055448 60 200 0.0 0.0 0.00 0.00 0.00 64 1008.4
20260505055232 60 154 0.0 0.0 0.00 0.00 0.00 63 1008.4
20260505054446 60 117 0.0 0.0 0.00 0.00 0.00 63 1008.4
20260505053944 60 122 0.0 0.0 0.00 0.00 0.00 63 1008.4
20260505053446 60 151 0.0 0.0 0.00 0.00 0.00 63 1008.4
20260505052943 60 129 0.0 0.0 0.00 0.00 0.00 63 1008.4
20260505052442 61 155 0.0 0.0 0.00 0.00 0.00 62 1008.5
20260505051940 61 176 0.0 0.0 0.00 0.00 0.00 62 1008.6
20260505051441 61 115 0.0 0.0 0.00 0.00 0.00 62 1008.6
20260505051234 61 146 0.0 0.0 0.00 0.00 0.00 62 1008.6
20260505050440 61 103 0.0 0.0 0.00 0.00 0.00 61 1008.6
20260505041431 62 124 0.0 0.0 0.00 0.00 0.00 58 1008.7
20260505040932 62 157 0.0 0.0 0.00 0.00 0.00 58 1008.8
20260505040430 62 117 0.0 0.0 0.00 0.00 0.00 57 1008.7
20260505035930 62 132 0.0 0.0 0.00 0.00 0.00 57 1008.7
20260505035429 62 133 0.0 0.0 0.00 0.00 0.00 57 1008.7
20260505034930 62 118 0.0 0.0 0.00 0.00 0.00 56 1008.7
20260505034425 62 197 0.0 0.0 0.00 0.00 0.00 56 1008.8
20260505033924 62 149 0.0 0.0 0.00 0.00 0.00 56 1008.8
20260505033426 62 109 0.0 0.0 0.00 0.00 0.00 55 1008.8
20260505033225 63 138 0.0 0.0 0.00 0.00 0.00 54 1008.8
20260505032724 63 132 0.0 0.0 0.00 0.00 0.00 54 1008.8
20260505031924 63 110 0.0 0.0 0.00 0.00 0.00 54 1008.9
20260505031426 63 221 0.0 0.0 0.00 0.00 0.00 53 1008.9
20260505030926 63 135 0.0 0.0 0.00 0.00 0.00 52 1008.8
20260505030424 64 177 0.0 0.0 0.00 0.00 0.00 52 1008.9
20260505030124 64 229 0.0 0.0 0.00 0.00 0.00 51 1008.9
20260505030119 64 172 0.0 0.0 0.00 0.00 0.00 51 1009.0
20260505030041 64 120 0.0 0.0 0.00 0.00 0.00 51 1008.9
20260505024425 64 141 0.0 0.0 0.00 0.00 0.00 51 1009.0
20260505024315 65 139 0.0 0.0 0.00 0.00 0.00 50 1009.0
20260505024002 64 111 0.0 0.0 0.00 0.00 0.00 51 1009.0
20260505022926 65 216 0.0 0.0 0.00 0.00 0.00 50 1009.1
20260505022727 65 147 0.0 0.0 0.00 0.00 0.00 50 1009.1
20260505021926 65 155 0.0 0.0 0.00 0.00 0.00 50 1009.1
20260505021425 65 209 0.0 0.0 0.00 0.00 0.00 49 1009.1
20260505021219 65 218 0.0 0.0 0.00 0.00 0.00 49 1009.1
20260505020426 65 132 0.0 0.0 0.00 0.00 0.00 48 1009.0
20260505020221 65 145 0.0 0.0 0.00 0.00 0.00 48 1009.0
20260505015424 66 202 0.0 0.0 0.00 0.00 0.00 48 1009.0
20260505014925 66 94 0.0 0.0 0.00 0.00 0.00 48 1009.0
20260505014426 66 152 0.0 0.0 0.00 0.00 0.00 48 1008.9
20260505013924 66 191 0.0 0.0 0.00 0.00 0.00 47 1009.0
20260505013423 67 110 0.0 0.0 0.00 0.00 0.00 46 1009.0
20260505012924 67 105 0.0 0.0 0.00 0.00 0.00 44 1008.9
20260505012426 68 138 0.0 0.0 0.00 0.00 0.00 41 1008.8
20260505011921 68 147 0.0 0.0 0.00 0.00 0.00 38 1008.7
20260505011420 68 146 0.0 0.0 0.00 0.00 0.00 38 1008.6
20260505011223 69 80 0.0 0.0 0.00 0.00 0.00 37 1008.4
20260505010417 69 116 0.0 0.0 0.00 0.00 0.00 37 1008.4
20260505005917 69 243 0.0 0.0 0.00 0.00 0.00 37 1008.4
20260505005414 69 148 0.0 0.0 0.00 0.00 0.00 37 1008.3
20260505004915 69 134 0.0 0.0 0.00 0.00 0.00 37 1008.2
20260505004413 69 243 0.0 0.0 0.00 0.00 0.00 37 1008.1
20260505003915 69 207 0.0 0.0 0.00 0.00 0.00 36 1008.2
20260505003404 69 180 0.0 0.0 0.00 0.00 0.00 36 1008.0
20260505002857 69 162 0.0 0.0 0.00 0.00 0.00 36 1008.0
20260505002351 70 236 0.0 0.0 0.00 0.00 0.00 36 1007.9
20260505001841 70 156 0.0 0.0 0.00 0.00 0.00 35 1007.9
20260505001335 70 162 0.0 0.0 0.00 0.00 0.00 35 1007.8
20260505000929 70 190 0.0 0.0 0.00 0.00 0.00 35 1007.6
20260505000906 70 214 0.0 0.0 0.00 0.00 0.00 35 1007.8
20260504235826 70 228 0.0 0.0 0.00 0.00 0.00 35 1007.6
20260504235623 71 195 0.0 0.0 0.00 0.00 0.00 34 1007.4
20260504234827 71 145 0.0 0.0 0.00 0.00 0.00 34 1007.4
20260504234328 71 179 0.0 0.0 0.00 0.00 0.00 34 1007.4
20260504233825 71 158 0.0 0.0 0.00 0.00 0.00 34 1007.2
20260504233324 72 138 0.0 0.0 0.00 0.00 0.00 33 1007.2
20260504232826 72 151 0.0 0.0 0.00 0.00 0.00 33 1007.1
20260504232322 72 231 0.0 0.0 0.00 0.00 0.00 33 1007.0
20260504231823 73 137 0.0 0.0 0.00 0.00 0.00 33 1006.9
20260504231323 73 212 0.0 0.0 0.00 0.00 0.00 32 1006.9
20260504230821 73 217 0.0 0.0 0.00 0.00 0.00 32 1006.8
20260504230617 73 257 0.0 0.0 0.00 0.00 0.00 32 1006.8
20260504225818 73 210 0.0 0.0 0.00 0.00 0.00 33 1006.8
20260504225312 73 198 0.0 0.0 0.00 0.00 0.00 32 1006.8
20260504224901 73 215 0.0 0.0 0.00 0.00 0.00 32 1006.8
20260504224836 73 168 0.0 0.0 0.00 0.00 0.00 32 1006.8
20260504223758 74 212 0.0 0.0 0.00 0.00 0.00 31 1006.9
20260504223257 74 175 0.0 0.0 0.00 0.00 0.00 32 1006.8
20260504222757 74 233 0.0 0.0 0.00 0.00 0.00 31 1006.8
20260504222256 74 147 0.0 0.0 0.00 0.00 0.00 32 1006.9
20260504221757 74 209 0.0 0.0 0.00 0.00 0.00 31 1006.8
20260504221257 74 150 0.0 0.0 0.00 0.00 0.00 31 1006.9
20260504220756 74 215 0.0 0.0 0.00 0.00 0.00 31 1006.9
20260504220258 74 220 0.0 0.0 0.00 0.00 0.00 31 1007.0
20260504215755 74 240 0.0 0.0 0.00 0.00 0.00 30 1007.1
20260504215256 74 185 0.0 0.0 0.00 0.00 0.00 31 1007.1
20260504214754 74 211 0.0 0.0 0.00 0.00 0.00 31 1007.2
20260504214252 74 195 0.0 0.0 0.00 0.00 0.00 32 1007.2
20260504214052 74 274 0.0 0.0 0.00 0.00 0.00 30 1007.3
20260504213250 74 275 0.0 0.0 0.00 0.00 0.00 31 1007.3
20260504212746 74 243 0.0 0.0 0.00 0.00 0.00 31 1007.4
20260504212246 74 224 0.0 0.0 0.00 0.00 0.00 31 1007.2
20260504211747 74 210 0.0 0.0 0.00 0.00 0.00 30 1007.5
20260504211247 74 276 0.0 0.0 0.00 0.00 0.00 31 1007.3
20260504210747 74 157 0.0 0.0 0.00 0.00 0.00 30 1007.4
20260504210247 74 256 0.0 0.0 0.00 0.00 0.00 31 1007.4
20260504205746 74 324 0.0 0.0 0.00 0.00 0.00 30 1007.4
20260504205244 74 189 0.0 0.0 0.00 0.00 0.00 31 1007.4
20260504205042 74 153 0.0 0.0 0.00 0.00 0.00 30 1007.3
20260504204244 74 205 0.0 0.0 0.00 0.00 0.00 30 1007.4
20260504203742 74 167 0.0 0.0 0.00 0.00 0.00 30 1007.3
20260504203247 74 158 0.0 0.0 0.00 0.00 0.00 30 1007.3
20260504202742 74 146 0.0 0.0 0.00 0.00 0.00 30 1007.4
20260504202242 74 297 0.0 0.0 0.00 0.00 0.00 31 1007.5
20260504201743 74 239 0.0 0.0 0.00 0.00 0.00 31 1007.5
20260504201238 74 243 0.0 0.0 0.00 0.00 0.00 31 1007.5
20260504201037 73 204 0.0 0.0 0.00 0.00 0.00 31 1007.5
20260504200538 74 294 0.0 0.0 0.00 0.00 0.00 32 1007.6
20260504200132 73 238 0.0 0.0 0.00 0.00 0.00 31 1007.7
20260504195814 74 191 0.0 0.0 0.00 0.00 0.00 31 1007.6
20260504194737 73 311 0.0 0.0 0.00 0.00 0.00 30 1007.8
20260504194234 73 313 0.0 0.0 0.00 0.00 0.00 31 1007.7
20260504193735 73 273 0.0 0.0 0.00 0.00 0.00 31 1007.7
20260504193538 73 205 0.0 0.0 0.00 0.00 0.00 32 1007.7
20260504192734 72 241 0.0 0.0 0.00 0.00 0.00 31 1007.7
20260504192234 72 160 0.0 0.0 0.00 0.00 0.00 32 1007.9
20260504191733 72 148 0.0 0.0 0.00 0.00 0.00 31 1008.1
20260504191530 72 247 0.0 0.0 0.00 0.00 0.00 32 1008.0
20260504190734 73 177 0.0 0.0 0.00 0.00 0.00 31 1008.2
20260504190328 72 172 0.0 0.0 0.00 0.00 0.00 32 1008.3
20260504190305 72 196 0.0 0.0 0.00 0.00 0.00 32 1008.2
20260504185222 72 214 0.0 0.0 0.00 0.00 0.00 32 1008.2
20260504184716 72 164 0.0 0.0 0.00 0.00 0.00 32 1008.3
20260504184207 72 221 0.0 0.0 0.00 0.00 0.00 31 1008.4
20260504183701 72 249 0.0 0.0 0.00 0.00 0.00 33 1008.5
20260504183157 72 238 0.0 0.0 0.00 0.00 0.00 32 1008.5
20260504182658 71 244 0.0 0.0 0.00 0.00 0.00 32 1008.6
20260504182547 72 221 0.0 0.0 0.00 0.00 0.00 32 1008.6
20260504182542 72 155 0.0 0.0 0.00 0.00 0.00 32 1008.6
20260504181158 72 163 0.0 0.0 0.00 0.00 0.00 33 1008.7
20260504180659 71 150 0.0 0.0 0.00 0.00 0.00 33 1008.8
20260504180158 71 153 0.0 0.0 0.00 0.00 0.00 33 1008.8
20260504175658 70 232 0.0 0.0 0.00 0.00 0.00 34 1008.9
20260504175158 70 207 0.0 0.0 0.00 0.00 0.00 32 1009.1
20260504174952 70 219 0.0 0.0 0.00 0.00 0.00 33 1009.2
20260504174202 70 302 0.0 0.0 0.00 0.00 0.00 34 1009.2
20260504173953 70 236 0.0 0.0 0.00 0.00 0.00 35 1009.2
20260504173202 70 276 0.0 0.0 0.00 0.00 0.00 34 1009.2
20260504172701 70 215 0.0 0.0 0.00 0.00 0.00 35 1009.2
20260504172156 70 266 0.0 0.0 0.00 0.00 0.00 34 1009.3
20260504171649 69 211 0.0 0.0 0.00 0.00 0.00 35 1009.4
20260504171144 69 138 0.0 0.0 0.00 0.00 0.00 34 1009.4
20260504170643 69 272 0.0 0.0 0.00 0.00 0.00 34 1009.6
20260504170440 69 311 0.0 0.0 0.00 0.00 0.00 35 1009.7
20260504160130 68 227 0.0 0.0 0.00 0.00 0.00 34 1010.5
20260504151123 66 281 0.0 0.0 0.00 0.00 0.00 36 1011.0
20260504150625 66 167 0.0 0.0 0.00 0.00 0.00 37 1011.1
20260504150423 66 220 0.0 0.0 0.00 0.00 0.00 39 1011.1
20260504141112 63 259 0.0 0.0 0.00 0.00 0.00 43 1011.4
20260504140612 62 113 0.0 0.0 0.00 0.00 0.00 43 1011.4
20260504140112 62 250 0.0 0.0 0.00 0.00 0.00 43 1011.4